Temperature
12 12 12 12 12 12 12 12 12 11 11 11 11 11 11 11 11 11 11 11 11 11 11 11 11 11 11 11 11 12 12 12 12 12 12 12 12 12
11 11 11 11 11 11 11 11 12 11 11 11 11 11 11 11 11 11 11 11 11 11 11 11 11 11 11 11 11 11 11 11 12 12 12 12 11 11
11 11 11 11 11 11 11 11 11 11 11 11 11 11 10 11 11 10 11 11 11 11 11 11 11 11 11 11 11 11 11 11 11 11 11 11 11 11
10 10 10 10 10 10 10 10 11 11 11 10 10 10 10 10 10 10 10 10 10 10 10 10 10 10 10 10 10 11 11 11 11 11 11 11 11 11
10 10 10 10 10 10 10 10 10 10 10 10 10 10 10 10 10 10 9 9 10 10 10 10 10 10 10 10 10 10 10 10 10 10 10 10 10 10
9 9 9 9 9 9 9 10 10 10 10 10 9 9 9 9 9 9 9 9 9 9 9 9 9 9 10 10 10 10 10 10 10 10 10 10 10 10
9 9 9 9 9 9 9 9 9 9 9 9 9 9 9 9 9 8 8 9 9 9 9 9 9 9 9 9 9 9 9 9 9 9 9 9 9 10
8 8 8 8 8 8 9 9 9 9 9 9 9 8 8 8 8 8 8 8 8 8 8 9 9 9 9 9 9 9 9 9 9 9 9 9 9 9
8 8 8 8 8 8 8 8 8 8 8 8 8 8 8 8 8 8 8 8 8 8 8 8 8 8 8 8 8 9 9 9 9 9 9 9 9 8
7 7 7 7 7 7 8 8 8 8 8 8 8 8 8 8 8 8 7 7 7 8 7 7 8 8 8 8 8 8 8 8 8 8 8 8 8 8
7 7 7 7 7 7 7 7 7 7 7 7 8 8 7 7 7 7 7 7 7 7 7 7 7 7 7 8 8 8 8 8 7 8 8 8 7 7
6 6 6 6 6 6 6 7 7 7 7 7 7 7 7 7 7 7 7 6 6 6 6 6 6 6 6 7 7 7 7 7 7 7 7 7 7 7
5 5 6 6 6 6 6 6 6 7 7 6 7 7 7 7 7 6 6 6 6 6 6 6 6 6 6 6 6 6 6 6 6 6 6 7 6 7
5 5 5 5 5 5 6 6 6 6 6 6 6 6 6 6 6 6 6 6 6 6 6 6 6 6 6 5 6 6 6 6 6 6 6 6 6 6
5 5 5 5 5 5 5 5 5 5 5 5 5 6 6 6 6 6 6 6 6 6 6 5 5 5 5 5 5 5 5 5 5 5 6 6 6 6
4 4 4 4 4 4 4 4 4 5 5 5 5 5 5 5 5 5 5 5 5 5 5 5 5 5 5 5 5 5 5 5 5 5 5 5 6 5
4 4 4 3 3 4 4 4 4 4 4 4 4 5 5 5 5 5 5 5 4 4 5 5 5 5 4 5 5 5 5 5 5 5 5 5 5 5
3 3 3 3 3 3 3 3 3 3 3 3 4 4 4 4 4 4 4 4 4 4 4 4 4 4 4 4 4 4 4 4 4 4 4 4 5 5
3 2 2 2 2 2 2 2 2 2 3 3 3 3 3 4 4 3 3 3 3 4 4 4 4 3 3 3 3 4 4 4 4 4 4 4 4 4
2 2 2 1 1 1 2 2 2 2 2 2 2 3 3 3 3 3 3 3 3 3 3 3 3 3 3 3 3 3 3 3 3 3 3 3 3 4
1 1 1 1 1 1 1 1 1 1 2 2 2 2 2 2 2 2 2 2 2 2 2 3 3 3 3 3 3 3 3 3 3 3 3 3 3 3
1 1 1 0 0 1 1 1 1 1 1 1 1 2 2 2 2 2 2 2 2 2 2 2 2 2 2 2 2 2 2 3 3 3 3 2 2 2
0 0 0 0 0 0 0 0 1 1 1 1 1 1 1 1 1 1 1 1 1 1 2 2 2 2 2 2 2 2 2 2 2 2 2 2 2 2
Wind_Speed
1 1 1 2 2 1 1 1 1 0 1 0 1 1 3 4 4 4 4 4 2 2 2 2 3 3 4 4 5 5 5 6 5 5 4 3 3 2
1 2 2 1 2 1 1 1 1 1 1 0 1 1 1 2 3 3 3 2 2 1 2 2 2 3 4 5 5 5 5 6 5 5 5 4 3 3
2 2 3 2 2 2 1 1 1 1 0 1 1 1 2 1 1 1 2 3 2 2 1 1 1 2 3 4 4 4 5 5 5 5 5 5 4 3
2 2 2 2 2 2 1 1 1 0 1 0 1 1 1 0 0 0 1 1 2 2 2 1 0 1 2 3 3 3 4 4 5 5 5 5 4 3
2 2 1 2 2 2 2 1 1 1 0 1 1 0 0 0 0 1 1 1 0 1 1 1 1 2 2 2 2 3 3 4 4 5 5 5 4 4
2 2 2 2 2 3 2 1 1 1 1 0 0 0 0 0 1 0 1 1 1 1 1 2 2 3 3 3 3 3 3 3 4 4 5 5 5 4
1 2 2 3 3 3 2 2 1 0 1 0 0 0 0 0 0 1 1 1 1 1 1 1 1 2 2 4 4 3 2 2 3 3 4 4 4 4
1 1 1 3 4 4 5 3 1 0 1 1 1 1 1 1 1 0 0 1 2 1 1 2 1 1 1 2 3 3 3 3 3 3 4 4 4 4
1 1 2 3 4 3 3 4 2 1 1 2 2 2 2 2 2 1 1 1 2 2 0 2 1 2 2 3 3 3 3 3 2 3 3 4 4 4
0 1 1 2 3 3 3 3 3 2 3 2 3 4 3 2 3 3 3 2 1 1 1 1 2 2 2 3 3 3 3 3 2 3 3 4 4 4
1 1 1 1 4 5 3 3 3 3 3 3 3 2 2 2 2 1 1 1 1 2 1 0 1 2 2 1 2 3 3 3 4 4 4 4 3 4
1 2 2 3 4 6 3 3 3 3 2 2 2 2 1 1 1 2 3 2 1 1 1 0 1 1 2 2 1 2 2 4 5 5 5 4 4 3
1 1 1 3 4 5 5 3 4 3 2 2 2 1 1 1 1 1 1 2 1 2 2 0 1 1 1 2 2 2 1 2 2 4 5 5 5 4
1 1 1 2 3 4 4 5 6 4 1 1 1 1 1 1 1 1 1 2 2 3 3 1 1 1 1 2 2 2 2 1 1 1 3 5 5 6
2 3 3 3 3 3 4 5 5 3 1 1 1 1 1 1 1 1 1 2 2 3 2 2 1 1 1 2 2 2 2 2 1 2 2 2 3 3
2 3 3 3 2 3 3 3 2 2 1 1 2 2 1 1 0 0 1 1 1 2 2 2 2 0 1 2 1 2 1 1 2 3 2 3 3 3
2 2 2 1 2 2 2 2 2 2 2 2 1 1 1 1 1 1 1 1 1 1 2 2 3 2 2 1 1 2 1 2 2 2 2 3 3 3
2 1 1 1 1 1 2 3 2 2 2 1 1 1 1 1 1 1 1 0 0 1 1 1 1 1 2 2 2 2 2 2 2 2 2 2 3 3
2 1 1 1 1 1 2 2 2 3 2 2 1 1 1 1 1 1 1 1 1 1 1 1 1 1 2 4 3 4 2 2 2 2 2 2 3 3
2 1 1 2 2 2 2 3 2 2 2 2 2 1 1 1 1 2 1 1 1 1 1 1 1 1 3 3 3 4 5 2 2 2 2 2 2 3
2 2 2 2 2 2 2 3 2 2 2 2 2 2 1 1 2 2 2 2 2 2 2 3 3 4 2 1 2 3 3 4 4 3 2 1 3 3
1 1 2 2 2 2 2 3 3 2 2 2 2 2 2 1 2 2 2 2 2 2 3 2 2 2 2 3 3 3 4 3 4 5 3 2 2 3
2 2 2 2 2 2 2 3 3 2 2 2 2 3 3 2 2 2 2 2 2 2 2 3 3 2 2 2 3 3 4 4 3 2 3 5 4 5
Wind_Direction
11 18 16 346 352 6 52 96 117 127 261 313 53 37 82 105 124 115 116 118 111 95 68 39 15 10 7 5 8 8 2 360 1 3 356 346 340 4
9 24 22 2 350 359 30 38 68 117 226 307 0 343 61 102 124 117 122 136 132 116 85 58 33 16 8 5 6 4 3 1 359 2 2 351 354 354
13 22 10 7 7 355 16 29 27 71 122 305 18 41 50 71 68 85 124 141 148 169 152 119 39 8 359 1 3 2 4 3 0 358 355 357 354 346
23 25 4 5 8 357 12 14 348 29 147 204 313 35 52 117 97 17 117 130 150 184 185 194 287 348 342 349 355 354 356 359 358 355 353 354 348 331
42 38 15 16 7 356 350 7 346 349 89 154 242 242 71 128 113 319 21 68 65 134 200 232 266 307 318 318 317 317 326 341 348 347 344 341 335 324
38 28 31 47 20 359 351 1 25 6 350 92 79 53 136 21 76 319 342 356 349 352 292 277 260 265 296 314 291 287 297 314 328 334 334 332 328 319
28 34 44 54 33 14 358 350 11 2 352 5 166 16 49 91 264 282 310 311 300 352 321 289 259 248 265 284 277 271 274 286 302 318 325 326 326 319
42 38 42 54 45 25 13 5 3 341 230 230 246 238 228 205 217 279 345 10 305 315 359 305 331 291 241 248 273 259 261 271 287 304 316 323 331 333
28 18 7 31 28 3 349 347 333 326 256 221 220 236 227 200 178 214 229 228 260 261 352 283 284 286 262 265 257 241 250 268 288 306 324 333 333 328
3 61 48 20 3 4 353 345 317 282 255 233 217 226 232 213 194 207 222 239 271 307 53 268 282 288 292 240 259 249 259 263 274 296 311 316 317 318
354 34 59 23 3 5 357 335 318 299 274 246 245 249 256 254 211 156 187 172 299 284 261 185 279 309 299 259 266 281 282 275 275 283 293 300 298 299
1 24 25 3 0 0 340 319 300 291 303 305 290 288 266 275 217 174 187 187 239 276 261 145 289 346 317 296 302 273 279 287 286 287 282 283 287 278
338 11 340 351 356 354 349 330 315 310 266 262 245 238 218 192 163 184 189 181 211 258 250 199 259 268 236 284 301 291 267 278 279 290 286 285 279 261
346 356 337 358 350 347 348 342 347 349 322 287 256 235 222 222 222 216 253 264 265 254 241 213 242 237 245 290 293 308 321 301 293 312 302 300 289 275
16 13 9 11 355 335 335 344 352 349 328 317 282 263 241 227 222 240 277 275 292 294 263 287 293 248 242 264 271 297 316 316 322 322 315 307 291 287
2 6 23 20 357 341 343 329 321 329 326 274 272 279 291 290 285 252 273 305 323 319 333 344 338 307 287 284 276 290 290 277 306 317 316 309 301 295
10 20 20 11 353 347 346 337 328 331 324 302 294 316 318 287 281 278 256 274 286 287 315 337 352 6 345 316 283 278 278 296 295 308 320 315 310 306
55 34 9 354 346 341 337 328 325 323 316 293 280 298 306 300 303 296 264 222 241 277 291 298 330 346 343 336 310 269 280 286 297 306 315 311 306 311
63 44 3 350 347 341 332 327 325 320 324 330 320 314 317 316 317 307 294 284 262 264 290 291 280 273 292 299 304 323 293 292 300 299 301 297 286 290
45 35 10 358 357 350 340 332 328 334 341 345 351 338 323 327 322 308 295 287 291 291 288 294 275 252 247 262 279 304 306 281 272 272 283 298 297 295
18 1 348 355 353 342 334 332 337 342 341 344 341 329 314 310 306 298 297 304 311 294 270 273 280 295 286 284 290 293 306 314 297 279 257 280 303 299
356 338 340 352 348 338 336 339 341 344 342 341 335 325 319 301 288 290 292 294 291 283 285 287 289 300 295 275 266 278 292 310 330 330 321 276 254 249
360 357 358 357 359 357 350 343 345 350 346 336 332 330 330 319 305 295 293 288 289 291 296 302 303 299 293 273 266 276 282 294 300 316 315 318 300 285
Height
1521 1521 1521 1521 1521 1522 1522 1523 1523 1522 1523 1523 1523 1523 1522 1522 1522 1522 1521 1521 1521 1521 1520 1520 1519 1519 1518 1518 1517 1516 1516 1515 1515 1514 1514 1514 1514 1513
1519 1519 1519 1519 1519 1520 1520 1520 1521 1521 1520 1521 1521 1521 1520 1520 1520 1520 1520 1520 1519 1519 1519 1518 1518 1517 1516 1516 1515 1515 1514 1513 1513 1512 1512 1512 1512 1511
1517 1517 1517 1517 1517 1518 1518 1519 1519 1519 1518 1518 1519 1519 1518 1518 1518 1518 1517 1517 1517 1517 1517 1516 1516 1516 1515 1514 1514 1513 1513 1512 1511 1510 1510 1509 1510 1509
1515 1515 1515 1515 1515 1515 1516 1516 1516 1517 1517 1516 1516 1516 1516 1516 1516 1516 1515 1515 1516 1515 1515 1515 1514 1514 1513 1513 1512 1511 1511 1510 1509 1509 1509 1508 1508 1507
1513 1513 1513 1513 1512 1513 1513 1514 1514 1514 1514 1514 1514 1514 1514 1514 1514 1514 1514 1514 1514 1514 1513 1512 1512 1512 1511 1511 1510 1510 1509 1509 1508 1507 1507 1507 1506 1506
1511 1511 1511 1510 1510 1510 1510 1511 1511 1511 1512 1512 1512 1512 1512 1512 1512 1512 1511 1512 1512 1511 1511 1511 1510 1510 1509 1509 1508 1508 1507 1506 1506 1505 1505 1505 1504 1504
1508 1508 1508 1508 1508 1508 1508 1508 1509 1509 1509 1509 1509 1509 1509 1509 1509 1510 1509 1509 1509 1509 1509 1509 1508 1507 1507 1506 1506 1505 1505 1504 1504 1503 1503 1502 1502 1501
1505 1505 1505 1505 1505 1505 1505 1505 1506 1507 1507 1507 1507 1507 1507 1507 1508 1508 1507 1507 1507 1508 1507 1507 1506 1505 1505 1504 1503 1503 1502 1502 1502 1501 1501 1500 1500 1499
1503 1503 1503 1503 1502 1502 1502 1502 1503 1503 1504 1505 1504 1504 1504 1505 1505 1505 1505 1505 1505 1505 1505 1504 1504 1503 1503 1502 1502 1501 1500 1499 1499 1499 1498 1498 1497 1497
1500 1500 1500 1499 1500 1500 1499 1499 1499 1500 1501 1501 1502 1502 1502 1502 1503 1503 1503 1503 1503 1503 1503 1502 1501 1501 1500 1500 1500 1499 1497 1497 1496 1496 1496 1495 1495 1495
1497 1498 1497 1497 1497 1497 1496 1496 1496 1496 1497 1498 1498 1499 1499 1500 1500 1500 1500 1500 1500 1500 1501 1500 1499 1498 1497 1497 1497 1496 1495 1494 1494 1494 1493 1493 1493 1493
1494 1495 1495 1495 1494 1494 1493 1493 1492 1493 1493 1494 1495 1495 1496 1496 1497 1497 1497 1497 1497 1497 1498 1498 1497 1496 1495 1495 1495 1494 1493 1492 1492 1492 1491 1491 1491 1490
1492 1492 1492 1492 1491 1491 1491 1490 1490 1490 1490 1491 1491 1492 1493 1493 1494 1494 1495 1495 1495 1495 1496 1496 1495 1495 1494 1492 1492 1492 1491 1490 1490 1489 1489 1489 1488 1488
1489 1489 1489 1489 1489 1488 1488 1487 1487 1487 1487 1488 1488 1489 1490 1490 1491 1492 1492 1493 1493 1493 1494 1494 1493 1492 1492 1490 1489 1489 1489 1489 1488 1487 1486 1485 1485 1485
1487 1487 1487 1486 1486 1485 1485 1485 1484 1484 1484 1485 1485 1486 1487 1488 1488 1489 1490 1490 1490 1491 1491 1491 1491 1490 1490 1488 1487 1487 1486 1486 1485 1484 1483 1482 1481 1481
1484 1484 1484 1484 1484 1483 1483 1482 1482 1482 1482 1482 1483 1483 1484 1485 1485 1486 1486 1487 1487 1487 1488 1488 1488 1487 1486 1486 1486 1485 1484 1483 1483 1482 1480 1479 1478 1477
1482 1481 1481 1481 1481 1481 1480 1480 1479 1479 1479 1480 1480 1480 1481 1481 1482 1483 1483 1484 1483 1483 1483 1484 1484 1483 1483 1483 1482 1482 1481 1480 1480 1479 1477 1476 1475 1475
1480 1479 1479 1479 1479 1479 1478 1478 1477 1477 1477 1477 1477 1477 1478 1478 1479 1480 1480 1481 1480 1480 1480 1480 1480 1480 1480 1479 1480 1479 1478 1477 1477 1476 1475 1473 1472 1472
1478 1477 1477 1477 1477 1477 1477 1476 1476 1475 1475 1475 1475 1475 1475 1476 1476 1477 1477 1477 1477 1478 1478 1478 1477 1476 1476 1475 1475 1477 1476 1474 1473 1472 1472 1471 1469 1468
1476 1476 1476 1476 1476 1476 1475 1474 1474 1473 1473 1472 1472 1472 1473 1473 1473 1474 1474 1474 1474 1474 1474 1474 1474 1474 1473 1473 1472 1472 1473 1472 1470 1469 1468 1467 1466 1465
1475 1475 1475 1475 1475 1474 1473 1473 1472 1471 1471 1471 1471 1470 1470 1470 1470 1471 1471 1471 1471 1471 1470 1470 1470 1471 1471 1470 1469 1467 1468 1468 1467 1466 1465 1463 1462 1461
1474 1474 1473 1473 1473 1473 1472 1471 1470 1469 1469 1469 1469 1469 1468 1468 1468 1468 1468 1468 1468 1468 1467 1467 1467 1467 1467 1466 1464 1463 1463 1463 1463 1462 1462 1461 1459 1457
1472 1472 1472 1472 1471 1471 1470 1469 1468 1467 1467 1467 1466 1466 1466 1465 1465 1465 1464 1465 1464 1464 1463 1463 1462 1463 1462 1462 1461 1460 1459 1458 1457 1457 1457 1457 1456 1455